GW3941 Weather Reports


time (UTC)temp
F
wind
direction
speed
knots
gust
knots
rain 1hr
in
rain 24hr
in
rain mn
in
humidity
%
barometer
mb
20260506212006 59 228 1.7 5.2 0.00 0.17 0.17 95 1006.8
20260506211506 59 226 1.7 8.7 0.00 0.17 0.17 95 1006.8
20260506211006 59 182 1.7 8.7 0.00 0.17 0.17 95 1006.8
20260506210506 59 226 2.6 7.8 0.00 0.17 0.17 95 1006.7
20260506210007 59 209 1.7 4.3 0.00 0.17 0.17 95 1006.7
20260506205505 59 194 1.7 7.0 0.00 0.17 0.17 95 1006.7
20260506205005 59 215 1.7 7.0 0.00 0.17 0.17 95 1006.7
20260506204505 59 300 2.6 7.0 0.00 0.17 0.17 95 1006.6
20260506204003 59 140 1.7 7.8 0.00 0.17 0.17 95 1006.6
20260506203503 59 184 2.6 4.3 0.00 0.17 0.17 95 1006.6
20260506203003 59 203 1.7 6.1 0.00 0.17 0.17 95 1006.5
20260506202504 59 171 2.6 7.0 0.00 0.17 0.17 95 1006.5
20260506202003 59 240 1.7 6.1 0.00 0.17 0.17 95 1006.5
20260506201503 59 205 1.7 6.1 0.00 0.17 0.17 95 1006.4
20260506201002 59 214 3.5 6.1 0.00 0.17 0.17 95 1006.5
20260506200501 59 182 1.7 6.1 0.00 0.17 0.17 95 1006.5
20260506200001 59 229 1.7 5.2 0.00 0.17 0.17 95 1006.6
20260506195600 58 201 1.7 7.0 0.00 0.17 0.17 95 1006.7
20260506195102 58 257 0.9 7.0 0.01 0.17 0.17 95 1006.8
20260506194602 58 219 1.7 7.8 0.01 0.17 0.17 95 1006.7
20260506194059 58 244 2.6 9.6 0.01 0.17 0.17 95 1006.9
20260506194002 58 138 2.6 9.6 0.01 0.17 0.17 95 1006.8
20260506193557 58 268 1.7 7.8 0.02 0.17 0.17 95 1006.9
20260506193058 58 250 1.7 7.8 0.02 0.17 0.17 95 1006.9
20260506192557 58 232 2.6 7.8 0.02 0.17 0.17 95 1006.9
20260506192100 58 285 1.7 7.8 0.02 0.17 0.17 95 1007.1
20260506191556 58 293 2.6 8.7 0.02 0.17 0.17 95 1007.1
20260506191056 58 219 2.6 8.7 0.02 0.17 0.17 95 1007.1
20260506190556 58 308 2.6 8.7 0.02 0.17 0.17 95 1007.2
20260506190058 58 218 1.7 8.7 0.03 0.17 0.17 96 1007.2
20260506185555 58 190 1.7 8.7 0.02 0.16 0.16 96 1007.3
20260506185056 58 211 2.6 9.6 0.02 0.16 0.16 95 1007.2
20260506184556 58 140 1.7 7.8 0.02 0.16 0.16 96 1007.2
20260506184053 58 211 2.6 7.8 0.02 0.16 0.16 96 1007.2
20260506183552 58 292 3.5 10.4 0.01 0.15 0.15 96 1007.2
20260506183100 58 17 2.6 10.4 0.01 0.15 0.15 96 1007.2
20260506182551 58 323 1.7 7.0 0.01 0.15 0.15 96 1007.3
20260506182051 59 300 1.7 7.8 0.01 0.15 0.15 96 1007.3
20260506181618 59 175 1.7 7.8 0.01 0.15 0.15 96 1007.3
20260506181051 59 238 2.6 7.8 0.01 0.15 0.15 96 1007.3
20260506180551 59 219 1.7 8.7 0.01 0.15 0.15 96 1007.3
20260506180050 59 205 3.5 8.7 0.00 0.14 0.14 96 1007.2
20260506175550 59 217 2.6 8.7 0.01 0.14 0.14 96 1007.4
20260506175051 59 212 1.7 9.6 0.01 0.14 0.14 96 1007.5
20260506174549 59 202 1.7 9.6 0.02 0.14 0.14 96 1007.5
20260506174048 59 180 3.5 7.0 0.02 0.14 0.14 96 1007.6
20260506173548 59 182 2.6 7.8 0.03 0.14 0.14 96 1007.5
20260506173057 59 279 2.6 7.8 0.03 0.14 0.14 95 1007.7
20260506172547 59 213 1.7 6.1 0.04 0.14 0.14 96 1007.7
20260506172049 58 183 1.7 8.7 0.04 0.14 0.14 96 1007.7
20260506171547 59 158 1.7 8.7 0.05 0.14 0.14 96 1007.7
20260506171046 59 277 1.7 6.1 0.06 0.14 0.14 96 1007.7
20260506170546 59 153 0.9 5.2 0.06 0.14 0.14 96 1007.8
20260506170048 59 252 1.7 5.2 0.07 0.14 0.14 96 1007.8
20260506165545 59 210 1.7 7.8 0.07 0.13 0.13 96 1007.8
20260506165045 58 188 2.6 7.8 0.08 0.13 0.13 96 1007.7
20260506164547 59 273 1.7 10.4 0.07 0.12 0.12 96 1007.6
20260506164044 59 256 2.6 10.4 0.08 0.12 0.12 96 1007.5
20260506163544 59 59 4.3 9.6 0.07 0.11 0.11 96 1007.7
20260506163044 59 128 0.9 5.2 0.07 0.11 0.11 96 1007.8
20260506162541 59 330 0.9 6.1 0.06 0.10 0.10 96 1008.1
20260506162041 59 163 2.6 8.7 0.07 0.10 0.10 96 1008.2
20260506161539 59 67 1.7 8.7 0.06 0.09 0.09 96 1008.4
20260506161039 59 249 1.7 7.8 0.06 0.08 0.08 96 1008.6
20260506160539 59 5 1.7 6.1 0.06 0.08 0.08 96 1008.8
20260506160041 59 276 1.7 4.3 0.05 0.07 0.07 97 1008.8
20260506155540 59 92 0.9 5.2 0.04 0.06 0.06 97 1008.8
20260506155037 59 249 0.9 7.0 0.04 0.05 0.05 97 1008.9
20260506154538 59 250 2.6 8.7 0.04 0.05 0.05 97 1009.0
20260506154035 59 301 1.7 8.7 0.04 0.04 0.04 97 1009.0
20260506153534 60 246 0.9 7.8 0.04 0.04 0.04 97 1009.1
20260506153054 60 209 0.9 7.8 0.04 0.04 0.04 97 1008.8
20260506152533 60 236 0.9 6.1 0.04 0.04 0.04 97 1008.9
20260506152032 60 296 1.7 6.1 0.03 0.03 0.03 97 1008.8
20260506151534 60 138 0.9 7.8 0.03 0.03 0.03 96 1008.8
20260506151038 60 180 1.7 5.2 0.02 0.02 0.02 96 1008.7
20260506150531 60 142 1.7 5.2 0.02 0.02 0.02 95 1008.8
20260506150033 61 238 0.9 5.2 0.02 0.02 0.02 95 1008.7
20260506145529 61 90 0.9 7.0 0.02 0.02 0.02 94 1008.7
20260506145029 61 193 0.9 7.0 0.01 0.01 0.01 93 1008.8
20260506144528 62 194 2.6 7.8 0.01 0.01 0.01 91 1009.0
20260506144027 62 219 2.6 7.8 0.00 0.00 0.00 89 1009.1
20260506143527 63 275 2.6 7.8 0.00 0.00 0.00 88 1009.0
20260506143031 63 94 1.7 8.7 0.00 0.00 0.00 88 1009.0
20260506142526 63 250 0.9 8.7 0.00 0.00 0.00 88 1008.9
20260506142026 63 199 1.7 7.0 0.00 0.00 0.00 88 1008.9
20260506141526 63 196 1.7 10.4 0.00 0.00 0.00 88 1008.9
20260506141027 63 226 1.7 10.4 0.00 0.00 0.00 88 1008.9
20260506140526 63 261 3.5 8.7 0.00 0.00 0.00 88 1008.9
20260506140026 62 240 0.9 7.8 0.00 0.00 0.00 88 1008.7
20260506135526 62 233 2.6 7.8 0.00 0.00 0.00 88 1008.8
20260506135026 62 86 0.9 7.8 0.00 0.00 0.00 88 1008.8
20260506134525 62 195 3.5 8.7 0.00 0.00 0.00 88 1008.9
20260506134025 62 99 2.6 7.0 0.00 0.00 0.00 88 1008.8
20260506133524 62 274 1.7 9.6 0.00 0.00 0.00 88 1008.9
20260506133024 62 232 3.5 9.6 0.00 0.00 0.00 88 1008.9
20260506132524 62 222 2.6 6.1 0.00 0.00 0.00 88 1009.0
20260506132024 62 192 1.7 8.7 0.00 0.00 0.00 89 1009.1
20260506131533 62 208 3.5 8.7 0.00 0.00 0.00 88 1009.2
20260506131024 62 232 2.6 8.7 0.00 0.00 0.00 88 1009.2
20260506130523 62 186 3.5 12.2 0.00 0.00 0.00 88 1009.2
20260506130024 62 238 3.5 12.2 0.00 0.00 0.00 88 1009.0
20260506125523 62 244 2.6 9.6 0.00 0.00 0.00 88 1009.1
20260506125023 62 133 1.7 7.8 0.00 0.00 0.00 88 1009.4
20260506124523 62 75 3.5 8.7 0.00 0.00 0.00 88 1009.2
20260506124023 62 232 1.7 8.7 0.00 0.00 0.00 88 1008.9
20260506123526 62 234 4.3 8.7 0.00 0.00 0.00 88 1008.7
20260506123023 62 101 2.6 8.7 0.00 0.00 0.00 88 1008.9
20260506122523 62 161 2.6 8.7 0.00 0.00 0.00 88 1008.9
20260506122024 62 156 1.7 6.1 0.00 0.00 0.00 88 1008.8
20260506121522 62 242 2.6 8.7 0.00 0.00 0.00 88 1009.0
20260506121022 62 263 2.6 11.3 0.00 0.00 0.00 88 1009.1
20260506120522 62 187 1.7 7.8 0.00 0.00 0.00 88 1009.1
20260506120022 62 74 1.7 8.7 0.00 0.00 0.00 89 1009.0
20260506115523 62 182 1.7 8.7 0.00 0.00 0.00 88 1009.0
20260506115021 62 88 3.5 7.8 0.00 0.00 0.00 89 1009.0
20260506114527 62 229 2.6 7.8 0.00 0.00 0.00 89 1009.0
20260506114021 62 230 2.6 7.0 0.00 0.00 0.00 89 1009.1
20260506113520 62 125 3.5 7.8 0.00 0.00 0.00 89 1009.3
20260506113033 62 234 2.6 7.8 0.00 0.00 0.00 89 1009.2
20260506112519 62 175 0.9 7.8 0.00 0.00 0.00 89 1009.2
20260506112019 62 233 1.7 7.8 0.00 0.00 0.00 89 1009.1
20260506111519 62 241 0.9 6.1 0.00 0.00 0.00 89 1009.0
20260506111019 62 113 2.6 6.1 0.00 0.00 0.00 89 1009.1
20260506110519 62 207 1.7 5.2 0.00 0.00 0.00 89 1009.1
20260506110019 62 132 2.6 7.0 0.00 0.00 0.00 90 1009.0
20260506105519 61 201 3.5 7.0 0.00 0.00 0.00 90 1009.0
20260506105019 61 219 1.7 9.6 0.00 0.00 0.00 90 1008.8
20260506104519 61 319 3.5 9.6 0.00 0.00 0.00 90 1008.7
20260506104018 61 42 2.6 7.8 0.00 0.00 0.00 90 1008.8
20260506103517 61 74 1.7 7.8 0.00 0.00 0.00 90 1008.7
20260506103017 61 65 2.6 7.8 0.00 0.00 0.00 90 1008.7
20260506102516 61 209 0.9 7.0 0.00 0.00 0.00 90 1008.8
20260506102017 61 214 2.6 7.8 0.00 0.00 0.00 90 1008.7
20260506101516 61 158 1.7 7.8 0.00 0.00 0.00 90 1008.7
20260506101016 61 76 0.9 4.3 0.00 0.00 0.00 90 1008.8
20260506100515 61 257 0.9 5.2 0.00 0.00 0.00 90 1008.8
20260506100015 61 168 1.7 7.0 0.00 0.00 0.00 90 1008.7
20260506095515 61 209 2.6 7.8 0.00 0.01 0.00 90 1008.6
20260506095015 61 137 1.7 7.8 0.00 0.01 0.00 90 1008.6
20260506094514 61 189 3.5 7.8 0.00 0.01 0.00 90 1008.6
20260506094014 61 159 1.7 6.1 0.00 0.01 0.00 90 1008.7
20260506093514 61 338 0.9 3.5 0.00 0.01 0.00 90 1008.6
20260506093014 62 96 0.9 6.1 0.00 0.01 0.00 90 1008.6
20260506092515 62 96 2.6 7.0 0.00 0.01 0.00 90 1008.6
20260506092013 62 83 1.7 7.0 0.00 0.01 0.00 89 1008.6
20260506091513 62 187 2.6 10.4 0.00 0.01 0.00 90 1008.7
20260506091012 61 273 1.7 7.0 0.00 0.01 0.00 90 1008.8
20260506090511 62 209 1.7 7.8 0.00 0.01 0.00 90 1008.7
20260506090015 61 59 2.6 7.8 0.00 0.01 0.00 90 1008.8
20260506085510 61 349 1.7 7.8 0.00 0.01 0.00 90 1008.9
20260506085011 61 213 1.7 6.1 0.00 0.01 0.00 90 1008.9
20260506084510 61 259 1.7 6.1 0.00 0.01 0.00 90 1008.9
20260506084012 61 284 0.9 7.0 0.00 0.01 0.00 89 1008.8
20260506083510 61 69 2.6 7.0 0.00 0.01 0.00 90 1008.9
20260506083009 61 183 1.7 6.1 0.00 0.01 0.00 90 1008.9
20260506082509 61 250 1.7 7.8 0.00 0.01 0.00 89 1008.9
20260506082010 61 134 0.9 7.8 0.00 0.01 0.00 89 1008.8
20260506081508 61 44 0.9 5.2 0.00 0.01 0.00 89 1008.8
20260506081010 62 176 1.7 7.0 0.00 0.01 0.00 89 1008.9
20260506080508 62 208 2.6 7.0 0.00 0.01 0.00 88 1008.9
20260506073504 62 159 1.7 6.1 0.00 0.01 0.00 86 1009.0
20260506073003 62 255 1.7 6.1 0.00 0.01 0.00 86 1009.1
20260506072503 62 261 1.7 6.1 0.00 0.01 0.00 85 1009.2
20260506072002 62 127 0.0 7.8 0.00 0.01 0.00 85 1009.1
20260506071502 62 189 0.9 7.8 0.00 0.01 0.00 84 1009.2
20260506071001 62 219 0.9 5.2 0.00 0.01 0.00 84 1009.2
20260506070501 63 275 2.6 5.2 0.00 0.01 0.00 84 1009.2
20260506070105 63 150 1.7 8.7 0.00 0.01 0.00 83 1009.2
20260506062054 64 273 0.9 3.5 0.00 0.01 0.00 80 1009.5
20260506061554 64 286 1.7 3.5 0.00 0.01 0.00 80 1009.6
20260506061054 64 257 0.9 3.5 0.00 0.01 0.00 80 1009.6
20260506060553 64 155 0.9 8.7 0.00 0.01 0.00 80 1009.7
20260506051048 65 133 2.6 7.8 0.00 0.01 0.00 77 1009.9
20260506050548 65 261 2.6 6.1 0.00 0.01 0.00 77 1009.9
20260506045047 65 182 0.9 7.8 0.00 0.01 0.00 77 1010.0
20260506044546 65 300 0.9 7.8 0.00 0.01 0.00 77 1010.1
20260506044045 65 250 2.6 7.8 0.00 0.01 0.00 77 1010.2
20260506043544 65 148 0.9 6.1 0.00 0.01 0.00 77 1010.3
20260506043046 64 212 1.7 6.1 0.00 0.01 0.00 77 1010.1
20260506042646 65 195 1.7 5.2 0.00 0.01 0.00 77 1010.0
20260506042044 65 200 0.9 6.1 0.00 0.01 0.00 77 1010.1
20260506041542 65 332 0.9 6.1 0.00 0.01 0.00 76 1010.1
20260506041041 65 273 1.7 6.1 0.00 0.01 0.00 76 1010.1
20260506040541 65 293 1.7 6.1 0.00 0.01 0.00 76 1010.1
20260506040041 65 259 1.7 5.2 0.00 0.01 0.00 76 1010.1
20260506035540 65 82 1.7 9.6 0.00 0.01 0.01 76 1010.1
20260506035042 65 159 1.7 9.6 0.00 0.01 0.01 76 1010.1
20260506034557 65 306 2.6 7.0 0.00 0.01 0.01 76 1010.1
20260506034038 65 250 1.7 7.0 0.00 0.01 0.01 76 1010.1
20260506033538 65 105 2.6 6.1 0.00 0.01 0.01 75 1010.0
20260506033038 66 193 0.9 7.0 0.00 0.01 0.01 75 1010.1
20260506032544 66 238 2.6 7.0 0.00 0.01 0.01 75 1010.0
20260506032038 66 175 2.6 7.8 0.00 0.01 0.01 74 1010.0
20260506031539 66 210 1.7 7.8 0.00 0.01 0.01 74 1010.0
20260506031038 66 111 1.7 4.3 0.00 0.01 0.01 73 1010.0
20260506030539 66 115 0.9 8.7 0.00 0.01 0.01 73 1010.0
20260506030041 66 190 0.9 8.7 0.00 0.01 0.01 72 1010.1
20260506025538 66 186 2.6 8.7 0.00 0.01 0.01 71 1010.0
20260506025038 67 305 0.9 7.0 0.00 0.01 0.01 70 1010.1
20260506024556 67 5 0.9 4.3 0.00 0.01 0.01 69 1010.0
20260506024037 67 72 1.7 4.3 0.00 0.01 0.01 68 1010.0
20260506023537 68 186 0.9 6.1 0.00 0.01 0.01 68 1010.1
20260506023037 68 192 2.6 7.8 0.00 0.01 0.01 67 1010.0
20260506022539 68 241 1.7 7.8 0.00 0.01 0.01 66 1010.0
20260506022036 68 159 1.7 7.0 0.00 0.01 0.01 65 1010.0
20260506021537 69 212 2.6 7.0 0.00 0.01 0.01 64 1009.9
20260506021036 69 96 1.7 6.1 0.00 0.01 0.01 64 1010.0
20260506020536 69 87 1.7 6.1 0.00 0.01 0.01 64 1010.0
20260506020036 69 204 1.7 6.1 0.00 0.01 0.01 63 1009.9
20260506015536 69 148 1.7 6.1 0.00 0.01 0.01 63 1009.9
20260506015036 69 319 2.6 9.6 0.00 0.01 0.01 63 1009.9
20260506014536 70 271 1.7 9.6 0.00 0.01 0.01 62 1009.9
20260506014038 70 329 1.7 10.4 0.00 0.01 0.01 62 1009.8
20260506013537 70 114 2.6 10.4 0.00 0.01 0.01 63 1009.7
20260506013044 70 75 1.7 7.8 0.00 0.01 0.01 62 1009.6
20260506012535 70 211 1.7 12.2 0.00 0.01 0.01 62 1009.6
20260506012034 70 63 1.7 7.8 0.00 0.01 0.01 62 1009.6
20260506011535 70 148 1.7 6.1 0.00 0.01 0.01 62 1009.6
20260506011034 70 215 2.6 8.7 0.00 0.01 0.01 62 1009.4
20260506010534 70 168 3.5 8.7 0.00 0.01 0.01 62 1009.4
20260506010034 71 207 2.6 7.8 0.00 0.01 0.01 62 1009.3
20260506005534 71 207 2.6 7.8 0.00 0.01 0.01 61 1009.2
20260506005036 71 136 1.7 6.1 0.00 0.01 0.01 61 1009.2
20260506004534 71 327 1.7 7.8 0.00 0.01 0.01 61 1009.1
20260506004034 71 273 3.5 7.8 0.00 0.01 0.01 61 1009.1
20260506003533 71 203 2.6 7.0 0.00 0.01 0.01 60 1009.1
20260506003035 71 230 1.7 5.2 0.00 0.01 0.01 59 1009.0
20260506002532 71 130 0.9 5.2 0.00 0.01 0.01 59 1009.0
20260506002032 72 134 2.6 6.1 0.00 0.01 0.01 58 1008.8
20260506001537 72 202 0.9 7.8 0.00 0.01 0.01 57 1008.9
20260506001033 72 284 1.7 7.0 0.00 0.01 0.01 57 1008.9
20260506000531 73 245 0.9 7.0 0.00 0.01 0.01 55 1008.9
20260506000033 73 227 1.7 7.0 0.00 0.01 0.01 54 1008.8
20260505235533 73 248 2.6 7.0 0.00 0.01 0.01 54 1008.7
20260505235031 74 238 1.7 7.0 0.00 0.01 0.01 53 1008.7
20260505234631 74 224 2.6 12.2 0.00 0.01 0.01 53 1008.6
20260505234030 74 239 2.6 12.2 0.00 0.01 0.01 53 1008.7
20260505233531 74 242 2.6 7.8 0.00 0.01 0.01 52 1008.6
20260505233029 74 246 3.5 8.7 0.00 0.01 0.01 52 1008.6
20260505232529 74 198 3.5 13.0 0.00 0.01 0.01 52 1008.6
20260505232030 74 182 3.5 13.0 0.00 0.01 0.01 51 1008.5
20260505231532 75 360 3.5 8.7 0.00 0.01 0.01 51 1008.6
20260505231032 75 264 1.7 10.4 0.00 0.01 0.01 51 1008.6
20260505230529 75 223 1.7 9.6 0.00 0.01 0.01 51 1008.5
20260505230048 76 180 4.3 10.4 0.00 0.01 0.01 50 1008.4
20260505225529 76 134 4.3 9.6 0.00 0.01 0.01 50 1008.3
20260505225029 76 262 5.2 15.6 0.00 0.01 0.01 50 1008.4
20260505224529 76 91 6.1 15.6 0.00 0.01 0.01 49 1008.3
20260505224027 76 215 2.6 11.3 0.00 0.01 0.01 50 1008.2
20260505223527 76 46 3.5 12.2 0.00 0.01 0.01 50 1008.1
20260505223029 76 79 2.6 12.2 0.00 0.01 0.01 49 1008.1
20260505222529 76 196 2.6 10.4 0.00 0.01 0.01 49 1008.1
20260505222027 76 178 4.3 10.4 0.00 0.01 0.01 48 1008.1
20260505221533 76 116 2.6 14.8 0.00 0.01 0.01 48 1008.2
20260505221026 77 251 3.5 14.8 0.00 0.01 0.01 47 1008.2
20260505220525 77 360 3.5 8.7 0.00 0.01 0.01 47 1008.2
20260505220025 76 240 2.6 12.2 0.00 0.01 0.01 47 1008.3
20260505215527 76 226 2.6 16.5 0.00 0.01 0.01 47 1008.2
20260505215025 76 214 5.2 16.5 0.00 0.01 0.01 47 1008.4
20260505214526 76 200 4.3 15.6 0.00 0.01 0.01 47 1008.1
20260505214025 76 227 3.5 11.3 0.00 0.01 0.01 46 1008.1
20260505213523 76 237 5.2 10.4 0.00 0.01 0.01 46 1008.0
20260505213026 77 268 3.5 11.3 0.00 0.01 0.01 47 1008.1
20260505212526 77 237 6.1 12.2 0.00 0.01 0.01 46 1008.0